Location: General Nathan Twining Observatory
(34.5931°N, 106.8201°W)
Time: 12:44:09
(UTC-06:00)

Daily predictions for brighter satellites

Satellite Brightness Start Highest point End
(mag) Time Altitude Azimuth Time Altitude Azimuth Time Altitude Azimuth
Cosmos 1513 Rocket 4.5 20:30:28 10° N 20:36:33 78° E 20:42:39 10° S
Cosmos 1937 Rocket 3.4 20:34:38 10° S 20:39:44 76° ESE 20:44:52 10° NNE
Meteor 2-10 Rocket 3.8 20:37:05 10° N 20:42:55 70° E 20:48:39 10° SSE
Resurs 1-3 3.6 20:43:13 10° SSE 20:47:35 82° ENE 20:51:59 10° N
Hubble Space Telescope 2.8 20:45:05 10° WSW 20:47:51 17° SSW 20:50:37 10° SSE
Meteor 1-29 4.5 20:46:57 10° NE 20:49:28 18° E 20:51:57 10° SE
Cosmos 1470 Rocket 3.8 20:45:06 10° S 20:49:34 79° W 20:54:04 10° N
Cosmos 2150 Rocket 4.2 20:47:12 10° SSW 20:52:36 85° WNW 20:57:56 10° NNE
Cosmos 2298 Rocket 4.4 20:48:02 10° SSW 20:53:18 73° WNW 20:58:37 10° NNE
Meteor 2-3 Rocket 3.8 20:53:59 10° S 20:59:38 64° E 21:05:15 10° NNE
Cosmos 2082 Rocket 3.5 20:58:53 10° NW 21:04:08 41° WSW 21:09:24 10° S
Cosmos 1825 3.9 21:03:11 13° ESE 21:04:44 16° E 21:07:08 10° NE
Meteor 1-26 Rocket 4.3 20:59:58 10° N 21:05:37 69° E 21:11:22 10° SSE
ERS-1 Rocket 4.2 21:03:32 12° ESE 21:07:00 24° ENE 21:11:00 10° NNE
Cosmos 1869 Rocket 4.2 21:04:28 10° SSE 21:08:25 35° E 21:12:23 10° NNE
Spot 2 Rocket 4.1 21:07:26 10° S 21:12:26 59° WSW 21:17:29 10° NNW
Cosmos 1833 Rocket 4.2 21:07:52 10° NW 21:12:56 35° WSW 21:17:59 10° SSW
Helios 1B rocket 2.4 21:11:27 10° NNE 21:15:31 61° ESE 21:19:34 10° S
Cosmos 2084 4.5 21:12:15 10° N 21:15:36 27° NE 21:17:51 17° E
USA 186 3.3 21:17:49 10° SSW 21:20:06 28° W 21:22:34 10° NW
Cosmos 1892 3.3 21:18:01 10° SSW 21:21:49 58° W 21:25:36 10° N
ISS -1.7 21:20:00 10° W 21:22:54 30° NW 21:25:49 10° NNE
OAO 3 Copernicus 4.3 21:18:50 10° WSW 21:23:47 59° SSE 21:28:15 13° E
Lacrosse 4 Rocket 3.7 21:21:43 10° NNE 21:23:50 13° NE 21:25:48 10° ENE
USA 215 4.4 21:22:28 11° E 21:27:55 33° NNE 21:33:37 10° NNW
Cosmos 2221 Rocket 4.1 21:23:51 10° N 21:28:03 40° E 21:30:22 23° SE
Cosmos 1943 Rocket 2.2 21:26:53 10° S 21:32:19 55° ESE 21:37:45 10° NNE
Tiangong 2 1.3 21:31:20 10° WNW 21:34:31 63° NNE 21:35:46 32° E
Spot 1 4.3 21:34:43 17° SSE 21:38:20 85° ENE 21:43:20 10° NNW
Envisat 3.9 21:34:37 10° S 21:39:28 46° W 21:44:22 10° NNW
Cosmos 2344 3.7 21:32:18 10° S 21:39:45 52° ESE 21:47:27 10° NE
Cosmos 1900 4.4 21:36:13 10° NNW 21:41:24 85° WSW 21:44:31 24° SSE
Cosmos 2263 4.2 21:36:25 10° SSW 21:42:12 87° ESE 21:47:58 10° NNE
CZ-4B DEB 2.4 21:41:43 40° S 21:42:39 88° WSW 21:45:36 10° NNW
Cosmos 1340 3.8 21:40:08 10° NNE 21:43:20 26° ENE 21:43:36 25° E
Cosmos 372 Rocket 3.9 21:38:44 10° S 21:43:47 62° ESE 21:48:50 10° NNE
NOAA 11 4.3 21:40:47 24° SE 21:44:04 59° ENE 21:49:28 10° N
Helios 1A 3.3 21:42:20 16° S 21:45:33 63° W 21:49:43 10° NNW
Cosmos 1634 Rocket 4.0 21:39:25 10° N 21:45:45 88° W 21:51:19 14° S
SPOT 5 3.8 21:47:25 27° ESE 21:49:25 36° ENE 21:54:15 10° N
CENTAUR R/B 2.5 21:44:37 10° SSW 21:50:28 83° WNW 21:57:09 10° NNE
COSMOS 2455 4.0 21:46:13 10° SW 21:51:57 46° WNW 21:57:44 10° NNE
SAR-Lupe-4 3.5 21:51:25 37° S 21:52:45 83° WSW 21:56:21 10° NNW
Resurs 01 Rocket 4.3 21:51:05 10° SW 21:53:37 15° W 21:56:11 10° WNW
Cosmos 2369 Rocket 3.1 21:48:46 10° SW 21:54:14 51° WNW 21:59:46 10° N
Cosmos 1125 Rocket 3.5 21:49:23 10° SSW 21:54:38 84° WNW 21:59:53 10° NNE
OAO 2 Rocket 4.4 21:51:35 10° W 21:55:55 29° SSW 21:57:22 25° S
Shenzhou-11 Module 2.2 21:54:31 10° WNW 21:57:31 57° SW 21:57:31 57° SW
Cosmos 1606 2.6 21:54:27 10° N 21:58:12 66° E 21:58:52 53° SE
Lacrosse 5 rocket 3.5 21:55:36 10° W 21:58:34 24° NW 22:01:35 10° NNE
Milstar 3 3.6 21:47:04 10° WSW 21:59:01 51° S 22:03:20 27° ESE
YAOGAN 6 3.9 21:58:22 18° SSW 22:00:42 38° W 22:04:10 10° NNW
TRAILBLAZER 4.4 22:09:15 19° SSW 22:12:28 79° ESE 22:17:01 10° NNE
GPS 2-04 Rocket1 2.4 22:13:01 10° W 22:16:29 77° WNW 22:16:29 77° WNW
Okean 1-7 3.8 22:13:32 10° NNW 22:17:47 49° W 22:19:40 29° SSW
MetOp-B 4.1 22:17:02 38° S 22:19:11 80° WSW 22:24:34 10° NNW
Cosmos 2279 Rocket 4.0 22:13:12 10° N 22:19:28 81° W 22:22:39 31° S
ATLAS 5 CENTAUR R/B 2.7 22:14:37 10° NNW 22:20:39 58° ENE 22:22:41 41° ESE
H-2A R/B 2.2 22:22:48 50° ESE 22:23:53 60° ENE 22:29:09 10° N
Meteor 1-27 Rocket 3.6 22:18:38 10° N 22:24:22 72° E 22:25:44 51° SE
Cosmos 1408 4.5 22:26:50 17° SW 22:28:53 29° WNW 22:32:10 10° NNW
ARGOS 3.2 22:29:07 46° S 22:30:46 76° WSW 22:36:09 10° NNW
Cosmos 1656 Rocket 3.4 22:29:16 48° S 22:30:48 76° ESE 22:36:19 10° NNE
Cosmos 158 Rocket 3.9 22:26:53 10° NNW 22:31:45 71° WSW 22:32:34 58° SSW
Cosmos 1733 Rocket 3.1 22:38:50 71° WSW 22:38:59 72° W 22:43:19 10° N
Cosmos 1782 4.4 22:36:06 10° NNW 22:39:34 29° W 22:40:31 26° WSW
Cosmos 1825 4.4 22:38:00 15° WSW 22:40:04 23° WNW 22:43:08 10° NNW
SL-08 RB Rocket 4.0 22:45:10 59° SW 22:45:34 61° W 22:50:12 10° NNW
ERS-1 Rocket 4.3 22:43:32 24° SW 22:45:34 32° W 22:50:04 10° NW
Intercosmos 25 Rocket 3.8 22:44:52 10° N 22:51:27 88° E 22:51:30 88° ESE
Landsat 7 3.9 22:56:22 71° N 22:56:22 71° N 23:00:39 10° N
Lacrosse 4 Rocket 2.3 22:58:33 10° NNW 23:02:08 49° WNW 23:02:08 49° WNW
Meteor 1-14 Rocket 4.3 23:04:52 65° ENE 23:04:52 65° ENE 23:10:15 10° NNE
Cosmos 2227 Rocket 4.2 23:02:59 10° NNE 23:06:14 15° NE 23:06:32 15° ENE
Meteor 2-20 Rocket 4.3 23:06:18 78° S 23:06:45 88° E 23:12:54 10° N
ATLAS CENTAUR R/B 3.7 23:12:21 16° NNE 23:12:21 16° NNE 23:13:10 10° NNE
USA 215 3.2 23:09:49 65° S 23:10:32 70° SW 23:17:06 10° NW
Terra 2.3 23:12:01 56° N 23:12:01 56° N 23:15:48 10° N
Cosmos 2026 Rocket 4.0 23:12:37 67° ENE 23:12:37 67° ENE 23:18:27 10° NNE
Cosmos 2219 3.7 23:07:06 10° N 23:12:18 50° NE 23:12:18 50° NE
SL-19 R/B 4.4 23:11:18 10° NNE 23:17:23 83° E 23:17:23 83° E
Cosmos 2251 Rocket 3.9 23:17:09 10° NNW 23:21:25 59° N 23:21:25 59° N
H-2A R/B 3.8 23:31:06 28° N 23:31:06 28° N 23:33:09 10° N
GEOS 3 Rocket 4.1 23:35:54 57° NNW 23:35:54 57° NNW 23:40:02 10° NNW
SME Rocket 4.2 23:41:40 85° WSW 23:41:44 85° WSW 23:50:30 10° NNW
